EW1607 Weather Reports


time (UTC)temp
F
wind
direction
speed
knots
gust
knots
rain 1hr
in
rain 24hr
in
rain mn
in
humidity
%
barometer
mb
20260508231031 62 200 0.9 3.5 0.00 0.00 0.00 46 1007.4
20260508230524 63 193 0.9 3.5 0.00 0.00 0.00 45 1007.4
20260508230020 63 211 0.9 3.5 0.00 0.00 0.00 45 1007.4
20260508225520 63 262 0.9 3.5 0.00 0.00 0.00 46 1007.4
20260508225016 63 188 1.7 3.5 0.00 0.00 0.00 46 1007.4
20260508224516 63 203 1.7 4.3 0.00 0.00 0.00 46 1007.5
20260508224014 63 227 1.7 4.3 0.00 0.00 0.00 45 1007.5
20260508223517 63 205 0.9 4.3 0.00 0.00 0.00 47 1007.5
20260508222958 63 217 0.9 4.3 0.00 0.00 0.00 46 1007.5
20260508222452 64 205 1.7 3.5 0.00 0.00 0.00 45 1007.6
20260508221949 64 219 1.7 5.2 0.00 0.00 0.00 44 1007.6
20260508221443 64 193 1.7 5.2 0.00 0.00 0.00 44 1002.5
20260508221210 65 200 1.7 5.2 0.00 0.00 0.00 44 1007.8
20260508220416 65 223 1.7 5.2 0.00 0.00 0.00 45 1007.8
20260508215851 64 204 1.7 5.2 0.00 0.00 0.00 44 1007.7
20260508215348 64 212 1.7 4.3 0.00 0.00 0.00 43 1002.6
20260508214846 65 208 1.7 5.2 0.00 0.00 0.00 41 1007.8
20260508214334 65 191 1.7 5.2 0.00 0.00 0.00 40 1007.8
20260508214058 65 210 0.9 4.3 0.00 0.00 0.00 41 1007.8
20260508213312 64 108 0.9 2.6 0.00 0.00 0.00 40 1007.8
20260508212809 63 207 0.9 2.6 0.00 0.00 0.00 41 1007.9
20260508212306 63 199 0.9 4.3 0.00 0.00 0.00 39 1007.8
20260508212030 63 207 0.9 4.3 0.00 0.00 0.00 39 1002.7
20260508211239 64 200 0.9 3.5 0.00 0.00 0.00 38 1007.8
20260508210737 64 207 0.9 2.6 0.00 0.00 0.00 39 1007.9
20260508210234 65 238 0.9 4.3 0.00 0.00 0.00 43 1007.9
20260508205726 64 235 0.9 4.3 0.00 0.00 0.00 43 1007.9
20260508205226 64 221 0.9 2.6 0.00 0.00 0.00 44 1008.0
20260508204707 64 219 0.9 3.5 0.00 0.00 0.00 43 1008.2
20260508204145 65 207 1.7 6.1 0.00 0.00 0.00 41 1008.2
20260508203634 65 252 2.6 7.0 0.00 0.00 0.00 40 1008.2
20260508203133 65 214 2.6 7.0 0.00 0.00 0.00 40 1008.3
20260508202632 65 212 1.7 5.2 0.00 0.00 0.00 42 1008.2
20260508202130 65 77 1.7 7.0 0.00 0.00 0.00 44 1008.3
20260508201630 64 200 1.7 7.0 0.00 0.00 0.00 45 1008.5
20260508201127 64 237 0.9 2.6 0.00 0.00 0.00 44 1008.4
20260508200622 64 210 1.7 2.6 0.00 0.00 0.00 44 1008.6
20260508200117 63 205 1.7 4.3 0.00 0.00 0.00 43 1008.9
20260508195613 64 212 1.7 5.2 0.00 0.00 0.00 43 1009.1
20260508195039 64 209 1.7 7.0 0.00 0.00 0.00 43 1009.0
20260508194534 64 223 2.6 7.0 0.00 0.00 0.00 43 1009.1
20260508194034 64 201 2.6 6.1 0.00 0.00 0.00 42 1009.1
20260508193530 65 198 1.7 6.1 0.00 0.00 0.00 42 1009.4
20260508193313 65 228 1.7 5.2 0.00 0.00 0.00 42 1009.4
20260508192512 65 212 1.7 5.2 0.00 0.00 0.00 40 1009.3
20260508192005 65 193 1.7 5.2 0.00 0.00 0.00 39 1009.4
20260508191724 65 217 0.9 4.3 0.00 0.00 0.00 40 1009.5
20260508190937 65 270 1.7 6.1 0.00 0.00 0.00 38 1009.7
20260508190432 65 207 1.7 8.7 0.00 0.00 0.00 41 1009.7
20260508185923 65 77 1.7 7.0 0.00 0.00 0.00 39 1009.7
20260508185422 65 257 1.7 7.0 0.00 0.00 0.00 39 1009.9
20260508184926 65 198 1.7 7.0 0.00 0.00 0.00 38 1009.9
20260508184416 65 225 1.7 7.8 0.00 0.00 0.00 39 1010.0
20260508183916 65 285 1.7 7.8 0.00 0.00 0.00 40 1010.0
20260508183415 64 230 1.7 7.0 0.00 0.00 0.00 43 1010.0
20260508182834 63 212 2.6 7.0 0.00 0.00 0.00 43 1010.2
20260508182332 64 197 1.7 4.3 0.00 0.00 0.00 42 1010.2
20260508181829 64 210 1.7 5.2 0.00 0.00 0.00 43 1005.0
20260508181308 63 224 1.7 5.2 0.00 0.00 0.00 44 1010.2
20260508180808 62 221 0.9 5.2 0.00 0.00 0.00 47 1010.2
20260508180308 62 231 1.7 6.1 0.00 0.00 0.00 46 1010.2
20260508175752 62 218 1.7 6.1 0.00 0.00 0.00 45 1010.3
20260508175233 62 219 1.7 5.2 0.00 0.00 0.00 47 1010.4
20260508174738 62 18 2.6 7.0 0.00 0.00 0.00 45 1010.5
20260508174232 62 237 2.6 7.0 0.00 0.00 0.00 44 1010.8
20260508173727 63 195 0.9 5.2 0.00 0.00 0.00 42 1010.7
20260508173222 63 219 0.9 4.3 0.00 0.00 0.00 42 1010.8
20260508172718 62 213 1.7 5.2 0.00 0.00 0.00 43 1010.9
20260508172218 62 215 2.6 6.1 0.00 0.00 0.00 42 1011.0
20260508171953 63 217 1.7 6.1 0.00 0.00 0.00 41 1005.9
20260508171214 63 259 0.9 5.2 0.00 0.00 0.00 42 1011.1
20260508170711 63 51 0.9 5.2 0.00 0.00 0.00 43 1011.2
20260508170153 62 112 1.7 6.1 0.00 0.00 0.00 40 1011.3
20260508165650 62 196 2.6 6.1 0.00 0.00 0.00 39 1011.3
20260508165149 62 184 1.7 6.1 0.00 0.00 0.00 39 1011.4
20260508164921 62 212 0.9 6.1 0.00 0.00 0.00 39 1011.5
20260508164149 62 276 0.9 4.3 0.00 0.00 0.00 39 1011.7
20260508163644 62 245 0.9 6.1 0.00 0.00 0.00 43 1011.7
20260508163133 61 298 0.9 6.1 0.00 0.00 0.00 40 1011.7
20260508162631 61 266 0.9 5.2 0.00 0.00 0.00 41 1011.7
20260508162130 61 98 1.7 7.0 0.00 0.00 0.00 40 1011.8
20260508161619 61 91 1.7 7.0 0.00 0.00 0.00 41 1011.8
20260508161122 61 198 0.9 4.3 0.00 0.00 0.00 43 1011.9
20260508160602 61 76 0.9 4.3 0.00 0.00 0.00 43 1012.0
20260508160055 60 70 0.9 3.5 0.00 0.00 0.00 43 1011.9
20260508155547 60 79 0.9 3.5 0.00 0.00 0.00 46 1012.0
20260508155042 60 87 0.9 3.5 0.00 0.00 0.00 46 1011.9
20260508154549 60 231 1.7 5.2 0.00 0.00 0.00 46 1012.0
20260508154035 60 218 0.9 5.2 0.00 0.00 0.00 45 1011.9
20260508153533 60 266 0.9 1.7 0.00 0.00 0.00 47 1011.9
20260508152942 60 22 0.0 1.7 0.00 0.00 0.00 47 1011.9
20260508152442 60 221 0.9 2.6 0.00 0.00 0.00 48 1011.9
20260508151935 59 215 0.9 3.5 0.00 0.00 0.00 49 1012.0
20260508151427 59 217 0.9 3.5 0.00 0.00 0.00 50 1012.1
20260508150922 59 214 0.9 2.6 0.00 0.00 0.00 50 1012.2
20260508150417 59 65 0.0 3.5 0.00 0.00 0.00 53 1012.2
20260508145909 58 44 0.0 3.5 0.00 0.00 0.00 52 1012.2
20260508145644 58 262 0.9 2.6 0.00 0.00 0.00 51 1012.1
20260508145405 58 215 0.9 2.6 0.00 0.00 0.00 52 1012.1
20260508144623 57 212 0.9 2.6 0.00 0.00 0.00 52 1012.2
20260508143845 57 78 0.9 1.7 0.00 0.00 0.00 58 1012.3
20260508143344 57 208 0.0 3.5 0.00 0.00 0.00 57 1012.3
20260508142835 57 85 0.0 3.5 0.00 0.00 0.00 59 1012.3
20260508142601 57 49 0.0 1.7 0.00 0.00 0.00 62 1012.5
20260508142022 57 127 0.0 1.7 0.00 0.00 0.00 57 1012.5
20260508141249 57 357 0.9 1.7 0.00 0.00 0.00 58 1012.5
20260508141033 57 244 0.0 0.9 0.00 0.00 0.00 58 1012.6
20260508140219 56 66 0.0 0.9 0.00 0.00 0.00 62 1012.5
20260508135714 56 219 0.9 2.6 0.00 0.00 0.00 69 1012.4
20260508135214 56 127 0.0 2.6 0.00 0.00 0.00 65 1012.6
20260508134715 57 102 0.0 0.9 0.00 0.00 0.00 64 1012.6
20260508134431 56 23 0.0 0.9 0.00 0.00 0.00 71 1012.6
20260508133634 54 126 0.0 0.9 0.00 0.00 0.00 71 1012.5
20260508133120 53 213 0.9 1.7 0.00 0.00 0.00 71 1012.4
20260508132608 52 202 0.9 1.7 0.00 0.00 0.00 72 1012.4
20260508132153 51 72 0.9 2.6 0.00 0.00 0.00 75 1012.4
20260508131525 51 41 0.9 2.6 0.00 0.00 0.00 78 1012.5
20260508131009 51 56 0.9 1.7 0.00 0.00 0.00 75 1012.5
20260508130454 51 91 0.0 1.7 0.00 0.00 0.00 74 1012.4
20260508130215 52 56 0.0 0.9 0.00 0.00 0.00 74 1012.4
20260508125442 52 229 0.0 0.9 0.00 0.00 0.00 76 1012.5
20260508124933 51 205 0.0 0.9 0.00 0.00 0.00 77 1012.3
20260508124424 50 205 0.0 1.7 0.00 0.00 0.00 78 1012.3
20260508123905 49 204 0.0 1.7 0.00 0.00 0.00 79 1012.3
20260508123404 49 188 0.0 1.7 0.00 0.00 0.00 80 1012.3
20260508122843 49 75 0.0 1.7 0.00 0.00 0.00 79 1012.2
20260508122330 49 117 0.0 0.9 0.00 0.00 0.00 81 1012.2
20260508121826 49 200 0.0 0.0 0.00 0.00 0.00 80 1012.2
20260508121236 49 200 0.0 0.0 0.00 0.00 0.00 82 1012.2
20260508120741 49 200 0.0 0.0 0.00 0.00 0.00 84 1012.2
20260508120235 47 200 0.0 0.0 0.00 0.00 0.00 90 1012.0
20260508115720 45 200 0.0 0.0 0.00 0.00 0.00 92 1011.9
20260508115224 44 200 0.0 0.0 0.00 0.00 0.00 92 1011.8
20260508114858 43 200 0.0 0.0 0.00 0.00 0.00 95 1011.6
20260508114127 42 200 0.0 0.0 0.00 0.00 0.00 96 1011.3
20260508113622 40 200 0.0 0.0 0.00 0.00 0.00 96 1011.1
20260508113114 39 200 0.0 0.0 0.00 0.00 0.00 95 1011.2
20260508112603 39 200 0.0 0.0 0.00 0.00 0.00 95 1011.0
20260508112106 38 200 0.0 0.0 0.00 0.00 0.00 94 1010.9
20260508111543 38 200 0.0 0.0 0.00 0.00 0.00 94 1010.9
20260508111039 38 200 0.0 0.0 0.00 0.00 0.00 94 1010.9
20260508110525 38 200 0.0 0.0 0.00 0.00 0.00 94 1010.8
20260508110013 38 200 0.0 0.0 0.00 0.00 0.00 94 1010.7
20260508105438 38 200 0.0 0.0 0.00 0.00 0.00 94 1010.7
20260508105149 38 200 0.0 0.0 0.00 0.00 0.00 93 1010.7
20260508104406 38 200 0.0 0.0 0.00 0.00 0.00 93 1010.6
20260508104344 38 200 0.0 0.0 0.00 0.00 0.00 93 1010.7
20260508103338 39 200 0.0 0.0 0.00 0.00 0.00 93 1010.7
20260508102826 39 200 0.0 0.0 0.00 0.00 0.00 93 1010.7
20260508102324 39 200 0.0 0.0 0.00 0.00 0.00 93 1010.7
20260508102316 39 200 0.0 0.0 0.00 0.00 0.00 93 1010.7
20260508101243 39 200 0.0 0.0 0.00 0.00 0.00 92 1010.7
20260508100726 39 200 0.0 0.0 0.00 0.00 0.00 92 1010.6
20260508100658 40 200 0.0 0.0 0.00 0.00 0.00 91 1010.6
20260508095642 40 200 0.0 0.0 0.00 0.00 0.00 92 1010.6
20260508095133 40 200 0.0 0.0 0.00 0.00 0.00 92 1010.6
20260508094629 40 200 0.0 0.0 0.00 0.00 0.00 91 1010.7
20260508094125 40 200 0.0 0.0 0.00 0.00 0.00 90 1010.6
20260508093759 41 200 0.0 0.0 0.00 0.00 0.00 90 1010.8
20260508093012 41 200 0.0 0.0 0.00 0.00 0.00 90 1010.8
20260508092738 41 200 0.0 0.0 0.00 0.00 0.00 90 1010.7
20260508091927 41 200 0.0 0.0 0.00 0.00 0.00 90 1010.8
20260508091637 41 200 0.0 0.0 0.00 0.00 0.00 90 1010.8
20260508091108 42 200 0.0 0.0 0.00 0.00 0.00 89 1010.8
20260508090250 42 200 0.0 0.0 0.00 0.00 0.00 88 1010.7
20260508085723 42 200 0.0 0.0 0.00 0.00 0.00 88 1010.7
20260508085138 42 200 0.0 0.0 0.00 0.00 0.00 87 1010.8
20260508084611 43 200 0.0 0.0 0.00 0.00 0.00 87 1006.7
20260508084112 43 200 0.0 0.0 0.00 0.00 0.00 87 1010.8
20260508083613 43 200 0.0 0.0 0.00 0.00 0.00 87 1010.9
20260508083032 43 200 0.0 0.0 0.00 0.00 0.00 86 1010.9
20260508082729 43 200 0.0 0.0 0.00 0.00 0.00 86 1010.9
20260508081957 44 200 0.0 0.0 0.00 0.00 0.00 85 1006.8
20260508081450 44 200 0.0 0.0 0.00 0.00 0.00 85 1011.0
20260508080917 44 200 0.0 0.9 0.00 0.00 0.00 84 1011.1
20260508080405 45 200 0.0 0.9 0.00 0.00 0.00 84 1011.2
20260508075847 45 200 0.0 0.9 0.00 0.00 0.00 83 1011.2
20260508075337 45 123 0.0 0.9 0.00 0.00 0.00 83 1011.1
20260508074817 45 74 0.0 0.9 0.00 0.00 0.00 83 1011.2
20260508074548 45 222 0.0 0.9 0.00 0.00 0.00 83 1011.3
20260508073812 45 222 0.0 0.9 0.00 0.00 0.00 83 1011.3
20260508073303 45 212 0.0 0.9 0.00 0.00 0.00 83 1011.3
20260508072749 45 212 0.0 0.9 0.00 0.00 0.00 83 1011.4
20260508072209 45 212 0.0 0.9 0.00 0.00 0.00 84 1011.4
20260508071707 45 212 0.0 0.9 0.00 0.00 0.00 84 1007.1
20260508071206 44 255 0.0 0.9 0.00 0.00 0.00 84 1011.4
20260508070656 44 235 0.0 0.9 0.00 0.00 0.00 84 1011.3
20260508070146 44 227 0.0 0.9 0.00 0.00 0.00 84 1011.3
20260508065618 44 209 0.0 0.0 0.00 0.00 0.00 84 1011.3
20260508065053 44 209 0.0 0.9 0.00 0.00 0.00 84 1011.3
20260508064546 44 209 0.0 0.9 0.00 0.00 0.00 84 1011.4
20260508064033 44 209 0.0 1.7 0.00 0.00 0.00 84 1011.2
20260508063533 44 209 0.0 1.7 0.00 0.00 0.00 84 1011.3
20260508063039 43 210 0.0 0.9 0.00 0.00 0.00 86 1011.3
20260508063034 44 210 0.0 0.9 0.00 0.00 0.00 85 1011.3
20260508062009 43 210 0.0 0.9 0.00 0.00 0.00 86 1011.4
20260508061451 43 210 0.0 0.0 0.00 0.00 0.00 86 1011.4
20260508060848 43 210 0.0 0.0 0.00 0.00 0.00 85 1011.3
20260508060336 43 210 0.0 0.0 0.00 0.00 0.00 84 1011.3
20260508060051 43 210 0.0 0.0 0.00 0.00 0.00 84 1011.3
20260508055238 43 210 0.0 0.0 0.00 0.00 0.00 84 1011.3
20260508054940 43 210 0.0 0.0 0.00 0.00 0.00 83 1011.3
20260508054204 44 210 0.0 0.0 0.00 0.00 0.00 83 1011.4
20260508054142 44 210 0.0 0.0 0.00 0.00 0.00 83 1011.4
20260508053142 44 210 0.0 0.0 0.00 0.00 0.00 82 1011.5
20260508052603 44 210 0.0 0.9 0.00 0.00 0.00 82 1011.5
20260508052052 44 210 0.0 0.0 0.00 0.00 0.00 81 1011.5
20260508051546 44 210 0.0 0.0 0.00 0.00 0.00 81 1011.5
20260508051038 44 210 0.0 0.9 0.00 0.00 0.00 81 1011.4
20260508050455 45 210 0.0 0.9 0.00 0.00 0.00 81 1011.6
20260508045943 45 210 0.0 0.9 0.00 0.00 0.00 80 1011.7
20260508045442 45 210 0.0 0.0 0.00 0.00 0.00 78 1011.7
20260508044933 45 210 0.0 0.9 0.00 0.00 0.00 78 1011.7
20260508044426 46 210 0.0 0.9 0.00 0.00 0.00 77 1011.6
20260508043856 46 210 0.0 0.0 0.00 0.00 0.00 76 1011.6
20260508043331 47 210 0.0 0.0 0.00 0.00 0.00 76 1011.7
20260508042825 47 206 0.0 0.0 0.00 0.00 0.00 75 1011.6
20260508042310 47 206 0.0 0.9 0.00 0.00 0.00 74 1011.6
20260508041759 47 205 0.0 0.9 0.00 0.00 0.00 73 1011.5
20260508041244 48 207 0.0 0.9 0.00 0.00 0.00 73 1011.5
20260508041008 48 207 0.0 0.9 0.00 0.00 0.00 72 1011.5
20260508040219 48 207 0.9 0.9 0.00 0.00 0.00 71 1011.7
20260508035708 49 207 0.9 1.7 0.00 0.00 0.00 71 1011.6
20260508035656 49 207 0.0 1.7 0.00 0.00 0.00 70 1011.6
20260508034652 49 205 0.0 0.9 0.00 0.00 0.00 69 1011.7
20260508034130 49 205 0.9 1.7 0.00 0.00 0.00 68 1011.7
20260508033845 49 206 0.9 1.7 0.00 0.00 0.00 68 1011.7
20260508033313 49 205 0.0 0.9 0.00 0.00 0.00 68 1011.8
20260508032523 49 212 0.0 0.9 0.00 0.00 0.00 68 1011.8
20260508032041 49 212 0.0 0.9 0.00 0.00 0.00 67 1011.9
20260508032035 49 212 0.0 0.9 0.00 0.00 0.00 67 1011.8
20260508031000 49 206 0.0 0.0 0.00 0.00 0.00 66 1011.9
20260508030955 49 212 0.0 0.9 0.00 0.00 0.00 67 1011.8
20260508025939 49 205 0.0 0.9 0.00 0.00 0.00 67 1012.2
20260508025425 49 205 0.0 1.7 0.00 0.00 0.00 67 1012.3
20260508024920 49 209 0.0 1.7 0.00 0.00 0.00 67 1012.2
20260508024421 49 212 0.0 0.9 0.00 0.00 0.00 67 1012.1
20260508023838 49 210 0.0 0.0 0.00 0.00 0.00 68 1012.1
20260508023326 50 210 0.0 0.0 0.00 0.00 0.00 66 1012.1
20260508022822 50 200 0.0 0.9 0.00 0.00 0.00 65 1011.9
20260508022311 50 234 0.0 0.9 0.00 0.00 0.00 64 1011.9
20260508021808 50 212 0.0 0.9 0.00 0.00 0.00 63 1012.0
20260508021250 51 217 0.0 0.9 0.00 0.00 0.00 63 1012.1
20260508020752 51 214 0.0 0.9 0.00 0.00 0.00 60 1012.1
20260508015640 51 230 0.0 0.9 0.00 0.00 0.00 56 1012.3
20260508014819 51 191 0.0 1.7 0.00 0.00 0.00 56 1012.2
20260508014305 51 224 0.0 1.7 0.00 0.00 0.00 55 1012.1
20260508013755 51 236 0.0 0.9 0.00 0.00 0.00 56 1012.0
20260508013252 51 221 0.0 3.5 0.00 0.00 0.00 56 1011.8
20260508012722 51 206 0.0 1.7 0.00 0.00 0.00 57 1011.8
20260508012219 51 214 0.9 4.3 0.00 0.00 0.00 58 1011.6
20260508011927 51 88 0.9 4.3 0.00 0.00 0.00 59 1011.7
20260508011155 50 220 0.9 3.5 0.00 0.00 0.00 58 1011.6
20260508010657 50 208 0.9 3.5 0.00 0.00 0.00 57 1011.5
20260508010150 50 214 0.0 3.5 0.00 0.00 0.00 57 1011.5
20260508005642 50 149 0.0 0.9 0.00 0.00 0.00 60 1011.4
20260508005405 50 91 0.0 0.9 0.00 0.00 0.00 57 1011.3
20260508004635 50 91 0.0 0.0 0.00 0.00 0.00 55 1011.2
20260508004124 51 91 0.0 0.0 0.00 0.00 0.00 54 1011.3
20260508003612 51 91 0.0 0.9 0.00 0.00 0.00 52 1011.2
20260508003330 51 91 0.0 0.9 0.00 0.00 0.00 51 1011.2
20260508002535 52 91 0.0 0.9 0.00 0.00 0.00 50 1011.3
20260508002001 52 91 0.0 1.7 0.00 0.00 0.00 50 1011.2
20260508001442 53 91 0.0 1.7 0.00 0.00 0.00 48 1011.3
20260508000918 53 79 0.0 1.7 0.00 0.00 0.00 49 1011.2
20260508000412 53 217 0.0 1.7 0.00 0.00 0.00 47 1011.3
20260507235902 53 79 0.0 1.7 0.00 0.00 0.00 49 1011.4
20260507235354 53 84 0.0 0.9 0.00 0.00 0.00 48 1011.3
20260507234845 53 84 0.0 3.5 0.00 0.00 0.00 48 1011.3
20260507234335 53 210 0.9 3.5 0.00 0.00 0.00 46 1011.3
20260507233829 54 127 0.9 4.3 0.00 0.00 0.00 47 1011.3
20260507233325 54 206 0.0 4.3 0.00 0.00 0.00 46 1011.3
20260507232821 54 98 0.0 2.6 0.00 0.00 0.00 46 1011.4
20260507232319 54 215 0.0 3.5 0.00 0.00 0.00 46 1011.4
20260507231756 54 186 0.9 3.5 0.00 0.00 0.00 46 1011.4